Back to catalog

STARLINK-11388

AliveCommunicationsVLEO
NORAD 62092·PAYLOAD·🇺🇸 United States

Launched Nov 25, 2024 from Cape Canaveral Space Force Station

Loading…

Next Passes (next 24 hours)

TLE

FreshSource: CelesTrak SupGP

Epoch: Sep 14, 2026, 14:16 UTC

1 62092C 24220E   26257.59493056  .00031533  00000+0  24514-3 0  2572
2 62092  43.0004 344.4925 0001495 263.5284  45.7939 15.70801904    15

Track STARLINK-11388 in real time with AllMySat

Download on the App Store